ORBCOMM FM 11

Satellite information

Favourite Embed

Satellite Type and Status

PAYLOADIN ORBIT

Key statistics

Satellite ORBCOMM FM 11 at a glance.

Uptime

10112

Days in orbit

Revolutions

≈ 14.5

Per day

Orbit

LEO

Low Earth Orbit

Inclination

45.0

Latest

Satellite identification and parameters

Extended collection of information and parameters for ORBCOMM FM 11.

Object identification

Identified? True

Debris? False

Object name: ORBCOMM FM 11

International designator: 1997-084C

Object number (NORAD): 25114

Object ID (CCSDS): 25114

Country: ORBITAL TELECOMMUNICATIONS SATELLITE (GLOBALSTAR) (ORB)

Current information (Y/N): Y

RCS size: MEDIUM

Orbital parameters

Period: 99.617 minutes

Inclination: 45.015 deg

SMA: 7118.42 km

Apoapsis: 745.029 km

Periapsis: 735.541 km

RAAN: 24.1385 deg

Eccentricy: 0.00066641

Argument of periapsis: 214.3635 deg

Mean anomaly: 145.6786 deg

Mean motion: 14.45530749 rev/day

Mean motion (dot): 0.00001819 rev/day2

B* drag term: 0.00055118816 1/REarth

Two-line elements (TLE)

Creation date: Aug. 28, 2025, 11:13 p.m.

Reference frame: TEME

Reference center: EARTH

Epoch: Aug. 28, 2025, 11:04 a.m. UTC

TLE line 0: 0 ORBCOMM FM 11

TLE line 1: 1 25114U 97084C 25240.46155663 .00001819 00000-0 55119-3 0 9993

TLE line 2: 2 25114 45.0150 24.1385 0006664 214.3635 145.6786 14.45530749451930

Live tracking on map

Real-time ground track for satellite ORBCOMM FM 11.

In-orbit conjunctions

There are no conjunctions computed for ORBCOMM FM 11, at the moment. Check back to stay up to date, as we update our databases every day.

Go to all conjunctions

Associated space launch

ORBCOMM FM 11 was lifted into orbit during the mission ‘Pegasus XL HAPS | Orbcomm-A1 - A8’, on board a Pegasus XL HAPS space rocket.

The launch took place on Dec. 23, 1997, 7:11 p.m. from Wallops Flight Facility.

For more information about the launch, click the button.

Launch to space Pegasus XL HAPS | Orbcomm-A1 - A8
Pegasus XL HAPS | Orbcomm-A1 - A8

Agency: N/A

Status: Launch Successful

Launch date: Dec. 23, 1997, 7:11 p.m. UTC

Rocket: Pegasus XL HAPS

Launch pad: Wallops Flight Facility

Location: Air launch to orbit

...

Latest news about this satellite

There are no fresh news available about this satellite. Check back as we update our databases every day.


Newsletter sign-up

Weekly statistics, charts and insights to help you stay on top of the space industry.